Regional Weather Roundup
Issued by NWS Nashville, TN

Home | Current Version | Previous Version | Text Only | Print | Product List | Glossary On
Versions: 1 2 3 4 5 6 7 8 9 10 11 12 13 14 15 16 17 18 19 20 21 22 23 24 25 26 27 28 29 30 31 32 33 34 35 36 37 38 39 40 41 42 43 44 45 46 47 48 49 50
000
ASUS44 KOHX 161905
RWROHX
MIDDLE TENNESSEE HOURLY WEATHER ROUNDUP
NATIONAL WEATHER SERVICE NASHVILLE TN
200 PM CDT WED APR 16 2014

NOTE: "FAIR" INDICATES FEW OR NO CLOUDS BELOW 12,000 FEET WITH
NO SIGNIFICANT WEATHER AND/OR OBSTRUCTIONS TO VISIBILITY.

* THESE REPORTS ARE NOT UNDER NWS QUALITY CONTROL AND MAY NOT
  REPORT WEATHER SUCH AS PRECIPITATION AND FOG.


TNZ005>011-023>034-057-059-062>066-078-080-162000
...NORTHERN MIDDLE TENNESSEE...

CITY           SKY/WX    TMP DP  RH WIND       PRES   REMARKS
CLARKSVILLE    SUNNY     53  27  36 SE8       30.26F
COLUMBIA       SUNNY     55  34  44 E9        30.21F
CROSSVILLE     SUNNY     54  20  26 E8        30.24F
GALLATIN         N/A     53  25  34 VRB7      30.27F
DICKSON        SUNNY     54  19  26 E9        30.22F
LIVINGSTON     SUNNY     52  22  31 VRB3      30.25
NASHVILLE      PTSUNNY   56  25  30 NE9       30.26F
PORTLAND       SUNNY     52  25  35 E10       30.26F
SMYRNA         SUNNY     56  24  29 SE8       30.26F
$$
TNZ056-058-060-061-075>077-079-093>097-162000
...SOUTHERN MIDDLE TENNESSEE...

CITY           SKY/WX    TMP DP  RH WIND       PRES   REMARKS
FAYETTEVILLE   SUNNY     56  24  29 VRB6      30.22F
LEWISBURG      SUNNY     56  24  29 CALM      30.23F
MCMINNVILLE    SUNNY     57  25  28 CALM      30.22F
MURFREESBORO   SUNNY     56  25  30 S8        30.24F
SHELBYVILLE    SUNNY     57  28  33 S5        30.24F
TULLAHOMA      SUNNY     57  19  23 S8        30.23F
WINCHESTER     SUNNY     57  23  26 SE9       30.23F
$$


...KEY TO REMARKS...
VSB - VISIBILITY IN MILES
WCI - WIND CHILL INDEX
HX  - HEAT INDEX




USA.gov is the U.S. government's official web portal to all federal, state and local government web resources and services.